H1 CPF 2 NER 2025 11 2 9 306 01 glonass140 H2 1903001 9140 44299 2025 11 2 0 0 0 2025 11 5 23 45 0 900 1 1 0 0 0 1 H9 10 0 60981 0.00000 0 -4629830.215 -10034762.734 23010317.396 10 0 60981 900.00000 0 -2034333.769 -11150673.297 22872735.639 10 0 60981 1800.00000 0 434388.777 -12431056.021 22291964.932 10 0 60981 2700.00000 0 2720051.060 -13836217.876 21279263.174 10 0 60981 3600.00000 0 4774920.319 -15317730.898 19854234.132 10 0 60981 4500.00000 0 6561550.542 -16820397.658 18044452.966 10 0 60981 5400.00000 0 8054084.347 -18284519.037 15884939.989 10 0 60981 6300.00000 0 9239070.692 -19648370.689 13417491.898 10 0 60981 7200.00000 0 10115765.296 -20850785.547 10689882.354 10 0 60981 8100.00000 0 10695901.930 -21833735.046 7754946.277 10 0 60981 9000.00000 0 11002944.623 -22544801.228 4669564.567 10 0 60981 9900.00000 0 11070852.376 -22939436.047 1493568.131 10 0 60981 10800.00000 0 10942408.464 -22982912.552 -1711418.087 10 0 60981 11700.00000 0 10667184.772 -22651885.143 -4883168.931 10 0 60981 12600.00000 0 10299227.148 -21935492.178 -7960067.481 10 0 60981 13500.00000 0 9894559.762 -20835953.188 -10882304.414 10 0 60981 14400.00000 0 9508614.295 -19368634.087 -13593044.556 10 0 60981 15300.00000 0 9193693.236 -17561576.103 -16039537.366 10 0 60981 16200.00000 0 8996575.243 -15454506.759 -18174149.242 10 0 60981 17100.00000 0 8956364.698 -13097373.023 -19955297.007 10 0 60981 18000.00000 0 9102677.306 -10548456.970 -21348263.960 10 0 60981 18900.00000 0 9454239.470 -7872151.877 -22325882.176 10 0 60981 19800.00000 0 10017961.636 -5136490.954 -22869067.512 10 0 60981 20700.00000 0 10788525.823 -2410531.410 -22967196.546 10 0 60981 21600.00000 0 11748505.716 238297.408 -22618317.913 10 0 60981 22500.00000 0 12869015.204 2746771.509 -21829193.635 10 0 60981 23400.00000 0 14110858.745 5058268.175 -20615169.396 10 0 60981 24300.00000 0 15426135.670 7124880.690 -18999876.081 10 0 60981 25200.00000 0 16760231.108 8909164.121 -17014768.182 10 0 60981 26100.00000 0 18054109.702 10385439.832 -14698508.021 10 0 60981 27000.00000 0 19246815.269 11540605.091 -12096207.846 10 0 60981 27900.00000 0 20278070.611 12374415.073 -9258544.820 10 0 60981 28800.00000 0 21090867.330 12899226.843 -6240766.617 10 0 60981 29700.00000 0 21633935.828 13139217.834 -3101607.688 10 0 60981 30600.00000 0 21863990.761 13129113.573 97861.952 10 0 60981 31500.00000 0 21747656.810 12912480.201 3295432.013 10 0 60981 32400.00000 0 21262993.332 12539655.720 6428967.198 10 0 60981 33300.00000 0 20400553.627 12065409.000 9437618.051 10 0 60981 34200.00000 0 19163934.364 11546426.778 12263003.253 10 0 60981 35100.00000 0 17569792.401 11038735.824 14850340.200 10 0 60981 36000.00000 0 15647328.625 10595169.612 17149502.044 10 0 60981 36900.00000 0 13437260.763 10262986.554 19115981.162 10 0 60981 37800.00000 0 10990328.299 10081739.875 20711741.226 10 0 60981 38700.00000 0 8365391.763 10081488.317 21905942.471 10 0 60981 39600.00000 0 5627205.213 10281422.209 22675527.356 10 0 60981 40500.00000 0 2843953.758 10688961.927 23005656.508 10 0 60981 41400.00000 0 84657.261 11299366.019 22889987.675 10 0 60981 42300.00000 0 -2583453.420 12095865.128 22330793.117 10 0 60981 43200.00000 0 -5097480.496 13050316.150 21338913.690 10 0 60981 44100.00000 0 -7401219.841 14124349.600 19933550.621 10 0 60981 45000.00000 0 -9447241.845 15270962.876 18141898.689 10 0 60981 45900.00000 0 -11198607.702 16436493.590 15998627.262 10 0 60981 46800.00000 0 -12630151.104 17562891.376 13545218.285 10 0 60981 47700.00000 0 -13729273.005 18590193.894 10829172.958 10 0 60981 48600.00000 0 -14496217.062 19459103.997 7903101.344 10 0 60981 49500.00000 0 -14943814.727 20113560.376 4823711.501 10 0 60981 50400.00000 0 -15096710.924 20503193.775 1650716.937 10 0 60981 51300.00000 0 -14990102.939 20585565.217 -1554317.006 10 0 60981 52200.00000 0 -14668045.607 20328091.343 -4729165.737 10 0 60981 53100.00000 0 -14181394.242 19709574.746 -7812153.772 10 0 60981 54000.00000 0 -13585472.173 18721273.494 -10743355.140 10 0 60981 54900.00000 0 -12937561.605 17367463.247 -13465762.104 10 0 60981 55800.00000 0 -12294324.134 15665466.632 -15926398.915 10 0 60981 56700.00000 0 -11709260.405 13645146.926 -18077358.405 10 0 60981 57600.00000 0 -11230316.858 11347885.676 -19876740.723 10 0 60981 58500.00000 0 -10897741.346 8825085.639 -21289475.478 10 0 60981 59400.00000 0 -10742278.957 6136260.454 -22288010.889 10 0 60981 60300.00000 0 -10783784.963 3346789.826 -22852856.216 10 0 60981 61200.00000 0 -11030314.181 525433.207 -22972966.620 10 0 60981 62100.00000 0 -11477725.873 -2258294.920 -22645962.704 10 0 60981 63000.00000 0 -12109821.462 -4936779.172 -21878180.208 10 0 60981 63900.00000 0 -12899009.732 -7446876.460 -20684548.662 10 0 60981 64800.00000 0 -13807471.792 -9732301.290 -19088301.102 10 0 60981 65700.00000 0 -14788776.794 -11745724.029 -17120520.358 10 0 60981 66600.00000 0 -15789880.159 -13450494.965 -14819530.638 10 0 60981 67500.00000 0 -16753419.668 -14821922.815 -12230146.350 10 0 60981 68400.00000 0 -17620212.026 -15848055.070 -9402793.007 10 0 60981 69300.00000 0 -18331843.796 -16529928.655 -6392517.818 10 0 60981 70200.00000 0 -18833246.564 -16881281.874 -3257909.885 10 0 60981 71100.00000 0 -19075146.848 -16927741.454 -59951.807 10 0 60981 72000.00000 0 -19016286.624 -16705520.718 3139173.995 10 0 60981 72900.00000 0 -18625320.253 -16259685.662 6277300.126 10 0 60981 73800.00000 0 -17882307.480 -15642063.787 9293485.871 10 0 60981 74700.00000 0 -16779739.495 -14908885.480 12129201.445 10 0 60981 75600.00000 0 -15323054.920 -14118258.600 14729461.655 10 0 60981 76500.00000 0 -13530624.208 -13327583.549 17043887.047 10 0 60981 77400.00000 0 -11433203.257 -12591018.075 19027672.419 10 0 60981 78300.00000 0 -9072879.164 -11957098.373 20642444.768 10 0 60981 79200.00000 0 -6501551.992 -11466616.045 21856995.148 10 0 60981 80100.00000 0 -3779015.407 -11150839.302 22647871.471 10 0 60981 81000.00000 0 -970715.320 -11030152.153 22999822.063 10 0 60981 81900.00000 0 1854721.471 -11113167.745 22906082.509 10 0 60981 82800.00000 0 4628087.409 -11396352.234 22368501.097 10 0 60981 83700.00000 0 7282216.830 -11864174.512 21397500.974 10 0 60981 84600.00000 0 9754524.127 -12489775.340 20011879.866 10 0 60981 85500.00000 0 11989353.782 -13236128.100 18238450.928 10 0 60982 0.00000 0 13940046.171 -14057642.933 16111531.268 10 0 60982 900.00000 0 15570635.622 -14902148.212 13672285.870 10 0 60982 1800.00000 0 16857108.586 -15713165.851 10967941.500 10 0 60982 2700.00000 0 17788173.699 -16432387.129 8050880.891 10 0 60982 3600.00000 0 18365509.398 -17002244.409 4977636.484 10 0 60982 4500.00000 0 18603480.039 -17368471.204 1807801.357 10 0 60982 5400.00000 0 18528332.277 -17482542.611 -1397121.959 10 0 60982 6300.00000 0 18176905.457 -17303892.737 -4574912.723 10 0 60982 7200.00000 0 17594910.166 -16801814.727 -7663840.140 10 0 60982 8100.00000 0 16834847.451 -15956962.005 -10603864.722 10 0 60982 9000.00000 0 15953656.495 -14762385.914 -13337809.109 10 0 60982 9900.00000 0 15010190.158 -13224064.289 -15812475.025 10 0 60982 10800.00000 0 14062625.236 -11360896.892 -17979684.105 10 0 60982 11700.00000 0 13165917.099 -9204166.029 -19797221.845 10 0 60982 12600.00000 0 12369406.601 -6796483.285 -21229665.793 10 0 60982 13500.00000 0 11714680.739 -4190264.895 -22249081.494 10 0 60982 14400.00000 0 11233777.769 -1445798.199 -22835572.346 10 0 60982 15300.00000 0 10947812.946 1371021.135 -22977672.335 10 0 60982 16200.00000 0 10866083.234 4191187.513 -22672573.795 10 0 60982 17100.00000 0 10985689.019 6945215.896 -21926185.505 10 0 60982 18000.00000 0 11291688.981 9565795.076 -20753019.714 10 0 60982 18900.00000 0 11757781.625 11990353.456 -19175910.098 10 0 60982 19800.00000 0 12347484.611 14163430.602 -17225565.935 10 0 60982 20700.00000 0 13015761.778 16038755.814 -14939971.090 10 0 60982 21600.00000 0 13711028.694 17580947.334 -12363639.583 10 0 60982 22500.00000 0 14377451.334 18766761.726 -9546742.441 10 0 60982 23400.00000 0 14957439.910 19585841.931 -6544123.324 10 0 60982 24300.00000 0 15394231.561 20040933.814 -3414222.722 10 0 60982 25200.00000 0 15634451.799 20147563.505 -217932.463 10 0 60982 26100.00000 0 15630545.564 19933190.763 2982596.246 10 0 60982 27000.00000 0 15342974.472 19435875.728 6125167.154 10 0 60982 27900.00000 0 14742086.917 18702516.995 9148751.307 10 0 60982 28800.00000 0 13809581.807 17786736.822 11994673.199 10 0 60982 29700.00000 0 12539504.116 16746503.926 14607747.460 10 0 60982 30600.00000 0 10938730.343 15641594.903 16937344.087 10 0 60982 31500.00000 0 9026923.496 14531001.620 18938362.004 10 0 60982 32400.00000 0 6835959.484 13470393.607 20572092.895 10 0 60982 33300.00000 0 4408848.648 12509741.612 21806959.635 10 0 60982 34200.00000 0 1798197.053 11691201.219 22619116.259 10 0 60982 35100.00000 0 -935729.138 11047344.232 22992899.092 10 0 60982 36000.00000 0 -3727256.745 10599810.715 22921121.471 10 0 60982 36900.00000 0 -6507783.860 10358437.016 22405207.217 10 0 60982 37800.00000 0 -9208382.038 10320895.340 21455160.837 10 0 60982 38700.00000 0 -11762416.152 10472859.287 20089375.175 10 0 60982 39600.00000 0 -14108074.843 10788688.120 18334279.946 10 0 60982 40500.00000 0 -16190708.153 11232601.109 16223837.365 10 0 60982 41400.00000 0 -17964876.527 11760293.036 13798893.665 10 0 60982 42300.00000 0 -19396027.018 12320923.535 11106398.012 10 0 60982 43200.00000 0 -20461727.602 12859397.251 8198502.835 10 0 60982 44100.00000 0 -21152408.509 13318839.387 5131561.907 10 0 60982 45000.00000 0 -21471579.703 13643162.687 1965044.825 10 0 60982 45900.00000 0 -21435515.380 13779617.634 -1239611.681 10 0 60982 46800.00000 0 -21072418.512 13681217.943 -4420193.630 10 0 60982 47700.00000 0 -20421100.313 13308938.239 -7514917.707 10 0 60982 48600.00000 0 -19529230.021 12633590.039 -10463633.555 10 0 60982 49500.00000 0 -18451228.513 11637295.443 -13208996.645 10 0 60982 50400.00000 0 -17245894.544 10314494.698 -15697588.393 10 0 60982 51300.00000 0 -15973863.721 8672443.326 -17880961.172 10 0 60982 52200.00000 0 -14695007.497 6731175.957 -19716587.415 10 0 60982 53100.00000 0 -13465882.071 4522936.491 -21168693.821 10 0 60982 54000.00000 0 -12337334.962 2091096.682 -22208964.088 10 0 60982 54900.00000 0 -11352370.329 -511393.173 -22817096.165 10 0 60982 55800.00000 0 -10544363.198 -3223958.014 -22981202.874 10 0 60982 56700.00000 0 -9935697.912 -5980675.736 -22698047.902 10 0 60982 57600.00000 0 -9536888.216 -8712784.633 -21973112.278 10 0 60982 58500.00000 0 -9346215.928 -11351316.493 -20820489.814 10 0 60982 59400.00000 0 -9349903.223 -13829745.904 -19262613.306 10 0 60982 60300.00000 0 -9522810.848 -16086545.454 -17329816.643 10 0 60982 61200.00000 0 -9829632.280 -18067540.296 -15059741.236 10 0 60982 62100.00000 0 -10226532.671 -19727963.912 -12496598.398 10 0 60982 63000.00000 0 -10663162.460 -21034129.411 -9690302.215 10 0 60982 63900.00000 0 -11084959.534 -21964646.874 -6695490.270 10 0 60982 64800.00000 0 -11435641.486 -22511136.514 -3570451.896 10 0 60982 65700.00000 0 -11659781.433 -22678408.775 -375985.604 10 0 60982 66600.00000 0 -11705357.378 -22484105.111 2825791.127 10 0 60982 67500.00000 0 -11526166.392 -21957816.099 5972655.675 10 0 60982 68400.00000 0 -11084000.803 -21139715.589 9003493.300 10 0 60982 69300.00000 0 -10350494.004 -20078769.935 11859485.178 10 0 60982 70200.00000 0 -9308557.662 -18830599.080 14485248.071 10 0 60982 71100.00000 0 -7953349.660 -17455080.492 16829903.604 10 0 60982 72000.00000 0 -6292732.002 -16013797.357 18848056.821 10 0 60982 72900.00000 0 -4347199.366 -14567438.341 20500665.824 10 0 60982 73800.00000 0 -2149281.106 -13173257.702 21755786.765 10 0 60982 74700.00000 0 257558.731 -11882701.434 22589180.925 10 0 60982 75600.00000 0 2820478.144 -10739297.753 22984773.419 10 0 60982 76500.00000 0 5479206.883 -9776898.812 22934955.794 10 0 60982 77400.00000 0 8168309.248 -9018345.835 22440727.529 10 0 60982 78300.00000 0 10819667.523 -8474612.119 21511674.308 10 0 60982 79200.00000 0 13365084.549 -8144458.662 20165783.596 10 0 60982 80100.00000 0 15738899.034 -8014616.003 18429100.873 10 0 60982 81000.00000 0 17880506.541 -8060484.203 16335232.541 10 0 60982 81900.00000 0 19736682.742 -8247321.483 13924704.229 10 0 60982 82800.00000 0 21263613.307 -8531871.796 11244185.849 10 0 60982 83700.00000 0 22428546.577 -8864363.204 8345597.297 10 0 60982 84600.00000 0 23211000.450 -9190793.369 5285111.080 10 0 60982 85500.00000 0 23603473.081 -9455406.111 2122070.372 10 0 60983 0.00000 0 23611627.509 -9603254.649 -1082156.830 10 0 60983 900.00000 0 23253942.041 -9582743.183 -4265367.245 10 0 60983 1800.00000 0 22560840.749 -9348038.719 -7365728.167 10 0 60983 2700.00000 0 21573340.209 -8861250.628 -10322981.698 10 0 60983 3600.00000 0 20341268.953 -8094284.378 -13079619.292 10 0 60983 4500.00000 0 18921134.383 -7030289.751 -15582004.942 10 0 60983 5400.00000 0 17373726.781 -5664640.639 -17781424.349 10 0 60983 6300.00000 0 15761561.219 -4005403.254 -19635039.132 10 0 60983 7200.00000 0 14146265.079 -2073271.084 -21106727.050 10 0 60983 8100.00000 0 12586021.197 99032.591 -22167791.489 10 0 60983 9000.00000 0 11133174.223 2467861.349 -22797526.092 10 0 60983 9900.00000 0 9832100.935 4980216.652 -22983623.268 10 0 60983 10800.00000 0 8717434.001 7575718.869 -22722418.375 10 0 60983 11700.00000 0 7812713.702 10188896.952 -22018964.588 10 0 60983 12600.00000 0 7129524.078 12751701.864 -20886936.735 10 0 60983 13500.00000 0 6667149.379 15196139.279 -19348365.760 10 0 60983 14400.00000 0 6412764.668 17456911.875 -17433208.754 10 0 60983 15300.00000 0 6342151.793 19473960.908 -15178762.858 10 0 60983 16200.00000 0 6420909.532 21194800.828 -12628934.451 10 0 60983 17100.00000 0 6606105.750 22576549.363 -9833378.077 10 0 60983 18000.00000 0 6848300.513 23587568.179 -6846522.297 10 0 60983 18900.00000 0 7093853.311 24208645.768 -3726502.056 10 0 60983 19800.00000 0 7287415.484 24433673.592 -534019.134 10 0 60983 20700.00000 0 7374501.109 24269788.036 2668846.242 10 0 60983 21600.00000 0 7304026.454 23736973.390 5819848.582 10 0 60983 22500.00000 0 7030709.664 22867143.947 8857790.740 10 0 60983 23400.00000 0 6517228.533 21702745.198 11723713.735 10 0 60983 24300.00000 0 5736044.805 20294934.300 14362039.351 10 0 60983 25200.00000 0 4670817.815 18701417.323 16721643.406 10 0 60983 26100.00000 0 3317347.822 16984034.884 18756839.272 10 0 60983 27000.00000 0 1684009.320 15206197.701 20428253.338 10 0 60983 27900.00000 0 -208344.020 13430279.358 21703576.518 10 0 60983 28800.00000 0 -2326999.095 11715074.747 22558178.452 10 0 60983 29700.00000 0 -4628502.482 10113429.395 22975573.757 10 0 60983 30600.00000 0 -7060233.118 8670137.308 22947732.465 10 0 60983 31500.00000 0 -9562364.150 7420193.618 22475229.534 10 0 60983 32400.00000 0 -12070133.766 6387473.359 21567231.145 10 0 60983 33300.00000 0 -14516332.149 5583890.112 20241318.200 10 0 60983 34200.00000 0 -16833902.792 5009068.456 18523150.243 10 0 60983 35100.00000 0 -18958551.569 4650542.997 16445975.689 10 0 60983 36000.00000 0 -20831256.437 4484475.072 14049996.959 10 0 60983 36900.00000 0 -22400574.288 4476856.833 11381601.760 10 0 60983 37800.00000 0 -23624649.580 4585152.120 8492474.273 10 0 60983 38700.00000 0 -24472841.238 4760305.268 5438602.417 10 0 60983 39600.00000 0 -24926899.806 4949033.375 2279199.588 10 0 60983 40500.00000 0 -24981645.327 5096305.454 -924438.814 10 0 60983 41400.00000 0 -24645116.983 5147903.656 -4110122.259 10 0 60983 42300.00000 0 -23938187.623 5052957.955 -7215972.263 10 0 60983 43200.00000 0 -22893658.680 4766346.453 -10181626.250 10 0 60983 44100.00000 0 -21554872.910 4250858.803 -12949414.302 10 0 60983 45000.00000 0 -19973902.752 3479029.998 -15465485.389 10 0 60983 45900.00000 0 -18209390.079 2434565.517 -17680860.605 10 0 60983 46800.00000 0 -16324127.873 1113295.913 -19552392.466 10 0 60983 47700.00000 0 -14382485.291 -476381.218 -21043611.072 10 0 60983 48600.00000 0 -12447784.189 -2313592.414 -22125440.322 10 0 60983 49500.00000 0 -10579737.171 -4365610.663 -22776769.922 10 0 60983 50400.00000 0 -8832054.622 -6588984.429 -22984871.765 10 0 60983 51300.00000 0 -7250321.010 -8931127.551 -22745652.352 10 0 60983 52200.00000 0 -5870229.275 -11332304.675 -22063736.075 10 0 60983 53100.00000 0 -4716247.085 -13727930.032 -20952377.500 10 0 60983 54000.00000 0 -3800770.379 -16051084.033 -19433204.122 10 0 60983 54900.00000 0 -3123799.046 -18235142.778 -17535794.382 10 0 60983 55800.00000 0 -2673147.434 -20216410.538 -15297099.077 10 0 60983 56700.00000 0 -2425179.747 -21936644.999 -12760717.434 10 0 60983 57600.00000 0 -2346037.974 -23345369.378 -9976042.121 10 0 60983 58500.00000 0 -2393309.150 -24401874.426 -6997290.299 10 0 60983 59400.00000 0 -2518059.972 -25076826.392 -3882440.135 10 0 60983 60300.00000 0 -2667151.215 -25353413.741 -692094.287 10 0 60983 61200.00000 0 -2785732.565 -25227985.002 2511706.623 10 0 60983 62100.00000 0 -2819810.968 -24710151.748 5666696.568 10 0 60983 63000.00000 0 -2718782.699 -23822353.439 8711598.308 10 0 60983 63900.00000 0 -2437821.185 -22598903.567 11587314.972 10 0 60983 64800.00000 0 -1940019.104 -21084558.388 14238075.573 10 0 60983 65700.00000 0 -1198193.982 -19332669.343 16612512.230 10 0 60983 66600.00000 0 -196281.060 -17402997.487 18664648.601 10 0 60983 67500.00000 0 1069745.227 -15359281.878 20354781.114 10 0 60983 68400.00000 0 2591459.924 -13266663.626 21650236.957 10 0 60983 69300.00000 0 4348103.758 -11189072.767 22525995.351 10 0 60983 70200.00000 0 6307222.409 -9186686.089 22965161.336 10 0 60983 71100.00000 0 8425802.770 -7313560.577 22959284.037 10 0 60983 72000.00000 0 10651859.766 -5615539.600 22508514.197 10 0 60983 72900.00000 0 12926408.783 -4128517.373 21621598.502 10 0 60983 73800.00000 0 15185743.058 -2877132.365 20315711.008 10 0 60983 74700.00000 0 17363922.711 -1873942.659 18616124.755 10 0 60983 75600.00000 0 19395373.330 -1119116.412 16555729.303 10 0 60983 76500.00000 0 21217487.257 -600649.423 14174402.689 10 0 60983 77400.00000 0 22773120.236 -295100.085 11518248.904 10 0 60983 78300.00000 0 24012880.028 -168810.550 8638714.551 10 0 60983 79200.00000 0 24897111.777 -179562.707 5591600.746 10 0 60983 80100.00000 0 25397497.072 -278599.264 2435988.561 10 0 60983 81000.00000 0 25498199.391 -412924.773 -766901.757 10 0 60983 81900.00000 0 25196507.286 -527789.379 -3954896.028 10 0 60983 82800.00000 0 24502947.498 -569250.085 -7066072.828 10 0 60983 83700.00000 0 23440862.364 -486700.744 -10039968.018 10 0 60983 84600.00000 0 22045468.361 -235262.983 -12818753.309 10 0 60983 85500.00000 0 20362434.527 222064.110 -15348365.443 10 0 60984 0.00000 0 18446039.955 912587.659 -17579563.308 10 0 60984 900.00000 0 16356986.071 1852516.679 -19468893.052 10 0 60984 1800.00000 0 14159957.763 3046029.737 -20979538.989 10 0 60984 2700.00000 0 11921031.881 4484856.846 -22082047.380 10 0 60984 3600.00000 0 9705044.062 6148394.109 -22754905.597 10 0 60984 4500.00000 0 7573023.007 8004348.246 -22984966.351 10 0 60984 5400.00000 0 5579799.636 10009885.433 -22767708.314 10 0 60984 6300.00000 0 3771890.930 12113237.526 -22107327.770 10 0 60984 7200.00000 0 2185746.702 14255699.360 -21016659.299 10 0 60984 8100.00000 0 846432.222 16373934.120 -19516926.787 10 0 60984 9000.00000 0 -233198.870 18402490.631 -17637329.402 10 0 60984 9900.00000 0 -1052807.546 20276427.187 -15414470.495 10 0 60984 10800.00000 0 -1624336.775 21933931.861 -12891640.552 10 0 60984 11700.00000 0 -1971254.444 23318829.172 -10117968.320 10 0 60984 12600.00000 0 -2127305.293 24382867.625 -7147457.064 10 0 60984 13500.00000 0 -2134826.175 25087691.878 -4037925.303 10 0 60984 14400.00000 0 -2042697.540 25406416.611 -849873.390 10 0 60984 15300.00000 0 -1904019.388 25324736.102 2354701.076 10 0 60984 16200.00000 0 -1773611.556 24841523.317 5513515.073 10 0 60984 17100.00000 0 -1705445.408 23968893.982 8565214.830 10 0 60984 18000.00000 0 -1750116.615 22731733.808 11450569.094 10 0 60984 18900.00000 0 -1952466.602 21166709.682 14113617.455 10 0 60984 19800.00000 0 -2349453.542 19320807.206 16502751.475 10 0 60984 20700.00000 0 -2968362.870 17249456.628 18571707.978 10 0 60984 21600.00000 0 -3825432.686 15014326.048 20280456.005 10 0 60984 22500.00000 0 -4924951.750 12680874.176 21595961.253 10 0 60984 23400.00000 0 -6258867.897 10315764.429 22492814.392 10 0 60984 24300.00000 0 -7806923.395 7984247.340 22953712.322 10 0 60984 25200.00000 0 -9537311.936 5747619.046 22969784.247 10 0 60984 26100.00000 0 -11407830.471 3660860.124 22540757.152 10 0 60984 27000.00000 0 -13367478.730 1770551.303 21674958.133 10 0 60984 27900.00000 0 -15358440.965 113150.970 20389153.726 10 0 60984 28800.00000 0 -17318368.599 -1286295.450 18708229.187 10 0 60984 29700.00000 0 -19182870.057 -2414961.971 16664713.375 10 0 60984 30600.00000 0 -20888105.273 -3272531.952 14298157.568 10 0 60984 31500.00000 0 -22373377.687 -3870960.190 11654379.216 10 0 60984 32400.00000 0 -23583616.292 -4233717.798 8784584.170 10 0 60984 33300.00000 0 -24471644.383 -4394551.863 5744383.327 10 0 60984 34200.00000 0 -25000140.036 -4395812.200 2592721.893 10 0 60984 35100.00000 0 -25143205.823 -4286415.718 -609258.605 10 0 60984 36000.00000 0 -24887481.213 -4119534.350 -3799403.862 10 0 60984 36900.00000 0 -24232749.997 -3950104.359 -6915752.925 10 0 60984 37800.00000 0 -23192016.155 -3832262.647 -9897743.331 10 0 60984 38700.00000 0 -21791043.788 -3816819.083 -12687391.458 10 0 60984 39600.00000 0 -20067379.328 -3948872.546 -15230424.617 10 0 60984 40500.00000 0 -18068896.071 -4265672.577 -17477342.327 10 0 60984 41400.00000 0 -15851921.207 -4794818.230 -19384385.648 10 0 60984 42300.00000 0 -13479023.198 -5552871.633 -20914395.185 10 0 60984 43200.00000 0 -11016551.642 -6544446.244 -22037540.703 10 0 60984 44100.00000 0 -8532032.177 -7761809.786 -22731907.852 10 0 60984 45000.00000 0 -6091525.094 -9185020.094 -22983930.260 10 0 60984 45900.00000 0 -3757057.787 -10782589.578 -22788658.364 10 0 60984 46800.00000 0 -1584238.059 -12512651.616 -22149859.507 10 0 60984 47700.00000 0 379852.302 -14324580.902 -21079947.067 10 0 60984 48600.00000 0 2098396.110 -16161000.462 -19599739.787 10 0 60984 49500.00000 0 3546139.450 -17960091.551 -17738055.761 10 0 60984 50400.00000 0 4710196.902 -19658109.596 -15531148.876 10 0 60984 51300.00000 0 5590330.663 -21192000.445 -13021998.674 10 0 60984 52200.00000 0 6198693.229 -22502006.740 -10259467.629 10 0 60984 53100.00000 0 6559045.990 -23534154.430 -7297342.656 10 0 60984 54000.00000 0 6705488.400 -24242514.485 -4193280.085 10 0 60984 54900.00000 0 6680753.166 -24591144.326 -1007675.380 10 0 60984 55800.00000 0 6534141.236 -24555627.122 2197519.479 10 0 60984 56700.00000 0 6319185.612 -24124144.273 5360007.055 10 0 60984 57600.00000 0 6091144.283 -23298036.243 8418359.577 10 0 60984 58500.00000 0 5904429.512 -22091828.705 11313213.851 10 0 60984 59400.00000 0 5810083.086 -20532723.560 13988422.367 10 0 60984 60300.00000 0 5853404.690 -18659576.865 16392138.277 10 0 60984 61200.00000 0 6071833.710 -16521407.117 18477813.510 10 0 60984 62100.00000 0 6493173.694 -14175496.700 20205091.402 10 0 60984 63000.00000 0 7134233.946 -11685165.870 21540577.553 10 0 60984 63900.00000 0 7999945.078 -9117311.830 22458475.145 10 0 60984 64800.00000 0 9082985.443 -6539814.653 22941073.689 10 0 60984 65700.00000 0 10363934.097 -4018916.856 22979082.880 10 0 60984 66600.00000 0 11811944.170 -1616684.100 22571806.064 10 0 60984 67500.00000 0 13385909.071 611349.143 21727150.573 10 0 60984 68400.00000 0 15036073.710 2618252.939 20461474.981 10 0 60984 69300.00000 0 16706024.531 4367409.801 18799276.083 10 0 60984 70200.00000 0 18334976.509 5833787.725 16772721.112 10 0 60984 71100.00000 0 19860262.809 7004726.694 14421033.428 10 0 60984 72000.00000 0 21219924.146 7880206.944 11789742.531 10 0 60984 72900.00000 0 22355290.386 8472588.536 8929811.856 10 0 60984 73800.00000 0 23213446.827 8805833.696 5896660.155 10 0 60984 74700.00000 0 23749481.870 8914244.841 2749094.590 10 0 60984 75600.00000 0 23928421.508 8840771.512 -451824.429 10 0 60984 76500.00000 0 23726768.736 8634957.655 -3643965.019 10 0 60984 77400.00000 0 23133582.191 8350615.972 -6765329.342 10 0 60984 78300.00000 0 22151047.479 8043327.808 -9755259.263 10 0 60984 79200.00000 0 20794515.810 7767874.641 -12555618.413 10 0 60984 80100.00000 0 19092006.916 7575710.380 -15111927.125 10 0 60984 81000.00000 0 17083195.800 7512582.119 -17374427.685 10 0 60984 81900.00000 0 14817924.587 7616400.882 -19299058.634 10 0 60984 82800.00000 0 12354300.828 7915453.461 -20848318.679 10 0 60984 83700.00000 0 9756461.015 8427032.014 -21992003.008 10 0 60984 84600.00000 0 7092092.164 9156540.542 -22707797.339 10 0 60984 85500.00000 0 4429814.561 10097117.144 -22981717.860 99